User: anonymous   Login
Location: Unspecified
(0.0000°N, 0.0000°E)
Time: 07:29:40
(UTC+00:00)
Language:

MERIDIAN 4 - Orbit

View from above orbital plane
View from above orbital plane
View from above satellite
View from above satellite

Ground track
Ground track

The orbit data is extracted from the following two-line orbital elements,

1 37398U 11018A   20224.55877383 -.00000056  00000-0  10000-3 0  9993
2 37398  64.0040  26.4339 7294827 253.4645  65.4966  2.00629775 67941
Epoch (UTC): 11 August 2020 13:24:38
Eccentricity: 0.7294827
inclination: 64.0040°
perigee height: 805 km
apogee height: 39547 km
right ascension of ascending node: 26.4339°
argument of perigee: 253.4645°
revolutions per day: 2.00629775
mean anomaly at epoch: 65.4966°
orbit number at epoch: 6794

The dashed part of the orbit path shows where the satellite is in the earth's shadow,  

DLR